Regional Weather Roundup
Issued by NWS

Home | Current Version | Previous Version | Graphics & Text | Print | Product List | Glossary Off
Versions: 1 2 3 4 5 6 7 8 9 10 11 12 13 14 15 16 17 18 19 20 21 22 23 24 25 26 27 28 29 30 31 32 33 34 35 36 37 38 39 40 41 42 43 44 45 46 47 48 49 50

000
ASUS43 KMPX 210610
RWRMN
WEATHER ROUNDUP FOR MINNESOTA
NATIONAL WEATHER SERVICE TWIN CITIES/CHANHASSEN MN
100 AM CDT SAT APR 21 2018


NOTE: "FAIR" INDICATES FEW OR NO CLOUDS BELOW 12,000 FEET WITH NO
SIGNIFICANT WEATHER AND/OR OBSTRUCTIONS TO VISIBILITY. N/A MEANS
CURRENT SKY AND/OR WEATHER CONDITIONS ARE NOT AVAILABLE.

MNZ060>063-068>070-210700-
   Twin Cities Metro

CITY           SKY/WX    TMP DP  RH WIND       PRES   REMARKS
TWIN CITIES    FAIR      41  27  57 CALM      30.42F
6HR MIN TEMP:  41; 6HR MAX TEMP:  50;

ST PAUL        FAIR      37  30  75 CALM      30.44F
CRYSTAL        FAIR      36  26  67 CALM      30.41F
BLAINE         FAIR      36  27  69 CALM      30.42F
LAKEVILLE      FAIR      32  28  86 CALM      30.42S
EDEN PRAIRIE   FAIR      38  26  62 CALM      30.42F
6HR MIN TEMP:  38; 6HR MAX TEMP:  48;

SOUTH ST PAUL  FAIR      36  26  67 CALM      30.42F
LAKE ELMO      FAIR      32  28  86 CALM      30.43F
$$
MNZ001>005-007-008-013>017-022>024-027-028-210700-
   Northwest Minnesota

CITY           SKY/WX    TMP DP  RH WIND       PRES   REMARKS
BEMIDJI        FAIR      32  22  66 CALM      30.38S
HALLOCK        FAIR      36  32  87 SE8       30.34S
ROSEAU         FAIR      34  30  86 S3        30.36S
WARROAD        FAIR      37  34  87 S3        30.37S
THIEF RVR FALL FAIR      38  31  76 S7        30.37S
CROOKSTON      FAIR      41  36  81 S9        30.37S
FOSSTON        FAIR      34  23  64 S5        30.38F WCI  30
DETROIT LAKES  FAIR      36  32  87 CALM      30.39F
MOORHEAD       FAIR      37  34  87 SE9       30.38F
PARK RAPIDS    FAIR      35  24  64 CALM      30.37F
MAHNOMEN       FAIR      36  31  82 S6        30.37F
$$
MNZ006-009>011-018-025>026-210700-
   North Central Minnesota

CITY           SKY/WX    TMP DP  RH WIND       PRES   REMARKS
BAUDETTE       FAIR      33  30  88 CALM      30.35F
FLAG ISLAND    FAIR      37  28  70 SE3       30.35R
INTL FALLS     CLOUDY    32  23  69 CALM      30.36R
6HR MIN TEMP:  30; 6HR MAX TEMP:  56;

WASKISH        FAIR      30  25  80 CALM      30.37S
BIG FORK       FAIR      28  21  74 CALM      30.38F
LONGVILLE      FAIR      28  21  74 CALM      30.39S
GRAND RAPIDS   FAIR      36  21  54 CALM      30.41S
CRANE LAKE     FAIR      25  21  86 CALM      30.39S
ORR            FAIR      37  16  41 SW3       30.36R
COOK           FAIR      39  21  48 SW5       30.39R
WALKER         FAIR      36  21  53 CALM      30.38F
$$
MNZ012-019>021-037-210700-
   Northeast Minnesota

CITY           SKY/WX    TMP DP  RH WIND       PRES   REMARKS
DULUTH         FAIR      40  19  43 W7        30.39F
6HR MIN TEMP:  39; 6HR MAX TEMP:  53;

ELY            FAIR      28  21  74 CALM      30.38S
HIBBING        FAIR      31  20  63 CALM      30.38F
EVELETH        FAIR      33  23  66 CALM      30.40S
DULUTH HARBOR  FAIR      39  25  56 SW7       30.42R
TWO HARBORS    FAIR      45  25  45 W7        30.38S
SILVER BAY     FAIR      28  23  80 CALM      30.39S
GRAND MARAIS     N/A     32  24  72 NW3       30.40S
G MARAIS ARPRT FAIR      28  19  69 CALM      30.39R
$$
MNZ029>031-032-039>041-046>048-054>057-064-210700-
   West Central Minnesota

CITY           SKY/WX    TMP DP  RH WIND       PRES   REMARKS
FERGUS FALLS   FAIR      36  30  80 SE8       30.37F
WHEATON        CLOUDY    34  30  86 SE3       30.40S
MORRIS         PTCLDY    34  30  86 SE7       30.38S WCI  28
ALEXANDRIA     FAIR      37  29  72 S3        30.39F
ELBOW LAKE     FAIR      34  30  86 SE6       30.38F WCI  29
WADENA         FAIR      34  28  80 CALM      30.39S
GLENWOOD       FAIR      34  32  93 CALM      30.39F
APPLETON       CLOUDY    34  28  80 CALM      30.39S
BENSON         CLOUDY    34  30  86 SE3       30.40F
ORTONVILLE     PTCLDY    34  30  86 SE5       30.38F WCI  30
MADISON        CLOUDY    36  34  93 S3        30.38S
WILLMAR        FAIR      34  30  86 CALM      30.41F
$$
MNZ033>034-036-042>043-049>051-058-059-210700-
   Central Minnesota

CITY           SKY/WX    TMP DP  RH WIND       PRES   REMARKS
ST CLOUD       FAIR      31  26  82 CALM      30.41F
6HR MIN TEMP:  30; 6HR MAX TEMP:  47;

SAUK CENTRE    FAIR      32  30  92 CALM      30.40F
PAYNESVILLE    FAIR      32  31  94 CALM      30.40F
AITKIN         FAIR      30  21  69 CALM      30.39F
PINE RIVER     FAIR      28  21  74 CALM      30.42S
BRAINERD       FAIR      38  24  57 SW3       30.40F
STAPLES        FAIR      36  28  75 CALM      30.39F
LONG PRAIRIE   FAIR      32  30  93 CALM      30.40F
LITTLE FALLS   FAIR      32  23  69 CALM      30.41S
LITCHFIELD     FAIR      36  30  80 CALM      30.41F
BUFFALO        FAIR      32  28  84 CALM      30.42F
MAPLE LAKE     FAIR      30  29  94 CALM      30.42F
HUTCHINSON     FAIR      34  32  92 CALM      30.42F
$$
MNZ037-044-045-052-053-210700-
   East Central Minnesota

CITY           SKY/WX    TMP DP  RH WIND       PRES   REMARKS
PRINCETON      FAIR      30  25  80 CALM      30.42S
MORA           FAIR      30  25  80 CALM      30.44R
CAMBRIDGE      FAIR      34  23  64 CALM      30.43S
RUSH CITY      FAIR      33  23  68 CALM      30.43R
MOOSE LAKE     FAIR      32  23  69 CALM      30.39S
HINCKLEY       FAIR      30  27  86 CALM      30.42S
CLOQUET        FAIR      37  16  41 W3        30.40S
MCGREGOR       FAIR      32  23  69 CALM      30.41S
$$
MNZ071>073-080-081-089-090-097-098-210700-
   Southwest Minnesota

CITY           SKY/WX    TMP DP  RH WIND       PRES   REMARKS
MONTEVIDEO     CLOUDY    34  28  80 S3        30.39S
GRANITE FALLS  CLOUDY    35  31  87 SE5       30.40F WCI  30
CANBY          PTCLDY    34  32  94 CALM      30.38F
MARSHALL       CLOUDY    35  30  82 SE3       30.38F
REDWOOD FALLS  MOCLDY    36  28  73 E6        30.38F
OLIVIA         CLOUDY    36  32  87 CALM      30.39S
PIPESTONE      CLOUDY   N/A N/A N/A SE6       30.36R
WINDOM         CLOUDY    37  19  48 CALM      30.38S
WORTHINGTON    CLOUDY    34  31  88 SE5       30.38  WCI  30
JACKSON        CLOUDY    34  30  86 E6        30.39R WCI  29
TRACY          CLOUDY    39  30  70 S5        30.37F
SLAYTON        CLOUDY    35  30  82 SE3       30.38S
$$
MNZ065>067-074>077-082>085-091>093-210700-
   South Central Minnesota

CITY           SKY/WX    TMP DP  RH WIND       PRES   REMARKS
MANKATO        FAIR      36  29  75 E5        30.41F
NEW ULM        CLOUDY    36  27  69 CALM      30.40F
ST JAMES       PTCLDY    36  28  75 NE5       30.40F
FAIRMONT       MOCLDY    36  29  75 CALM      30.40F
GLENCOE        FAIR      34  31  88 CALM      30.41F
FARIBAULT      FAIR      32  28  86 CALM      30.42F
OWATONNA       FAIR      34  30  86 CALM      30.41F
WASECA         FAIR      36  30  80 NE3       30.42F
ALBERT LEA     FAIR      34  27  75 CALM      30.40F
$$
MNZ078>079-086>088-094>096-210700-
   Southeast Minnesota

CITY           SKY/WX    TMP DP  RH WIND       PRES   REMARKS
ROCHESTER      FAIR      38  24  57 CALM      30.42S
6HR MIN TEMP:  36; 6HR MAX TEMP:  42;

RED WING       FAIR      32  25  74 CALM      30.42F
STANTON        FAIR      32  29  90 CALM      30.41S
DODGE CENTER   FAIR      34  27  75 CALM      30.41F
WINONA         FAIR      36  32  87 CALM      30.42S
AUSTIN         FAIR      34  28  80 CALM      30.40F
PRESTON        FAIR      38  20  47 CALM      30.42F
$$
ABBREVIATIONS USED IN REMARKS
   TC - TEMPERATURES IN CELSIUS
  WCI - WIND CHILL INDEX
   HX - HEAT INDEX
  VSB - VISIBILITY
$$



USA.gov is the U.S. government's official web portal to all federal, state and local government web resources and services.